Regional Weather Roundup
Issued by NWS

Home | Current Version | Previous Version | Graphics & Text | Print | Product List | Glossary On
Versions: 1 2 3 4 5 6 7 8 9 10 11 12 13 14 15 16 17 18 19 20 21 22 23 24 25 26 27 28 29 30 31 32 33 34 35 36 37 38 39 40 41 42 43 44 45 46 47 48 49 50
000
ASUS45 KCYS 010110
RWRWY

WYOMING REGIONAL WEATHER ROUNDUP
NATIONAL WEATHER SERVICE CHEYENNE WY
700 PM MDT THU JUL 31 2014

NOTE:  "FAIR" INDICATES FEW OR NO CLOUDS BELOW 12,000 FEET
WITH NO SIGNIFICANT WEATHER AND/OR OBSTRUCTIONS TO VISIBILITY.

WYZ001-010200-
YELLOWSTONE NATIONAL PARK

CITY           SKY/WX    TMP DP  RH WIND       PRES   REMARKS
LK YELLOWSTONE   N/A     59  47  64 CALM      30.43F
W YELLOWSTONE  NOT AVBL

$$
WYZ002>013-054>058-071-098>099-010200-
NORTHERN WYOMING

CITY           SKY/WX    TMP DP  RH WIND       PRES   REMARKS
JACKSON        PTSUNNY   77  37  24 N6        30.28
CODY           PTSUNNY   77  41  27 NW13      30.18S
GREYBULL       MOSUNNY   85  40  20 E18       30.07S
WORLAND        MOSUNNY   86  36  16 NE5       30.08F
SHERIDAN       PTSUNNY   81  41  24 SW18G24   30.09F
BUFFALO        PTSUNNY   77  39  25 W7        30.18F
GILLETTE       SUNNY     84  34  16 SE6       30.12F
HULETT         FAIR      81  46  30 MISG      30.14
NEWCASTLE      FAIR      81  41  24 MISG      30.15

$$
WYZ014>020-022>026-101>103-010200-
CENTRAL WYOMING

CITY           SKY/WX    TMP DP  RH WIND       PRES   REMARKS
BIG PINEY      PTSUNNY   72  37  28 W3        30.32S
PINEDALE       MOCLDY    73  36  25 NW10      30.32S
DUBOIS         FAIR      68  37  32 N3        30.35S
LANDER         PTSUNNY   80  32  17 NW6       30.18S
RIVERTON       PTSUNNY   81  27  14 N6        30.20S
CASPER         SUNNY     81  22  11 SE12      30.18F
DOUGLAS        SUNNY     81  38  21 SE8       30.19S

$$
WYZ021-027>030-104>119-010200-
SOUTHERN WYOMING

CITY           SKY/WX    TMP DP  RH WIND       PRES   REMARKS
EVANSTON       MOSUNNY   74  37  26 NE7       30.31S
KEMMERER       PTCLDY   N/A N/A N/A NE9       30.33F
FORT BRIDGER   FAIR      75  37  25 NE5       30.33S
ROCK SPRINGS   MOSUNNY   77  26  15 E12       30.27F
DIXON          FAIR      77  42  29 SE6       30.23S
RAWLINS        MOSUNNY   76  31  19 NE15G21   30.27F
SARATOGA       FAIR      72  36  26 NE12G18   30.29S
LARAMIE        MOSUNNY   68  41  37 E12       30.32S
CHEYENNE       SUNNY     71  46  40 SW10      30.27S
TORRINGTON     SUNNY     81  46  29 SE7       30.14S
PINE BLUFFS    FAIR      77  43  29 E6        30.22S

$$



USA.gov is the U.S. government's official web portal to all federal, state and local government web resources and services.